Year,Month,Day,Hour,Minute,Value (Times are PST for temperature in C)
2022,04,18,00,00,34.60
2022,04,18,00,01,34.60
2022,04,18,00,02,34.70
2022,04,18,00,03,34.70
2022,04,18,00,04,34.70
2022,04,18,00,05,34.80
2022,04,18,00,06,34.80
2022,04,18,00,07,34.80
2022,04,18,00,08,34.80
2022,04,18,00,09,34.80
2022,04,18,00,10,34.90
2022,04,18,00,11,34.80
2022,04,18,00,12,34.90
2022,04,18,00,13,34.90
2022,04,18,00,14,34.80
2022,04,18,00,15,34.80
2022,04,18,00,16,34.80
2022,04,18,00,17,34.70
2022,04,18,00,18,34.70
2022,04,18,00,19,34.60
2022,04,18,00,20,34.60
2022,04,18,00,21,34.50
2022,04,18,00,22,34.40
2022,04,18,00,23,34.40
2022,04,18,00,24,34.40
2022,04,18,00,25,34.40
2022,04,18,00,26,34.40
2022,04,18,00,27,34.30
2022,04,18,00,28,34.30
2022,04,18,00,29,34.30
2022,04,18,00,30,34.30
2022,04,18,00,31,34.30
2022,04,18,00,32,34.30
2022,04,18,00,33,34.30
2022,04,18,00,34,34.30
2022,04,18,00,35,34.30
2022,04,18,00,36,34.40
2022,04,18,00,37,34.40
2022,04,18,00,38,34.40
2022,04,18,00,39,34.40
2022,04,18,00,40,34.40
2022,04,18,00,41,34.50
2022,04,18,00,42,34.50
2022,04,18,00,43,34.60
2022,04,18,00,44,34.60
2022,04,18,00,45,34.60
2022,04,18,00,46,34.60
2022,04,18,00,47,34.60
2022,04,18,00,48,34.60
2022,04,18,00,49,34.60
2022,04,18,00,50,34.60
2022,04,18,00,51,34.60
2022,04,18,00,52,34.60
2022,04,18,00,53,34.60
2022,04,18,00,54,34.60
2022,04,18,00,55,34.60
2022,04,18,00,56,34.50
2022,04,18,00,57,34.50
2022,04,18,00,58,34.50
2022,04,18,00,59,34.50
2022,04,18,01,00,34.40
2022,04,18,01,01,34.40
2022,04,18,01,02,34.30
2022,04,18,01,03,34.30
2022,04,18,01,04,34.20
2022,04,18,01,05,34.20
2022,04,18,01,06,34.20
2022,04,18,01,07,34.10
2022,04,18,01,08,34.00
2022,04,18,01,09,34.00
2022,04,18,01,10,34.00
2022,04,18,01,11,33.90
2022,04,18,01,12,33.90
2022,04,18,01,13,33.80
2022,04,18,01,14,33.70
2022,04,18,01,15,33.70
2022,04,18,01,16,33.70
2022,04,18,01,17,33.70
2022,04,18,01,18,33.60
2022,04,18,01,19,33.60
2022,04,18,01,20,33.60
2022,04,18,01,21,33.50
2022,04,18,01,22,33.50
2022,04,18,01,23,33.40
2022,04,18,01,24,33.40
2022,04,18,01,25,33.40
2022,04,18,01,26,33.40
2022,04,18,01,27,33.40
2022,04,18,01,28,33.30
2022,04,18,01,29,33.30
2022,04,18,01,30,33.30
2022,04,18,01,31,33.20
2022,04,18,01,32,33.20
2022,04,18,01,33,33.10
2022,04,18,01,34,33.00
2022,04,18,01,35,33.00
2022,04,18,01,36,32.90
2022,04,18,01,37,32.90
2022,04,18,01,38,32.80
2022,04,18,01,39,32.70
2022,04,18,01,40,32.70
2022,04,18,01,41,32.70
2022,04,18,01,42,32.60
2022,04,18,01,43,32.60
2022,04,18,01,44,32.60
2022,04,18,01,45,32.60
2022,04,18,01,46,32.50
2022,04,18,01,47,32.50
2022,04,18,01,48,32.40
2022,04,18,01,49,32.40
2022,04,18,01,50,32.40
2022,04,18,01,51,32.30
2022,04,18,01,52,32.30
2022,04,18,01,53,32.30
2022,04,18,01,54,32.20
2022,04,18,01,55,32.20
2022,04,18,01,56,32.20
2022,04,18,01,57,32.10
2022,04,18,01,58,32.10
2022,04,18,01,59,32.00
2022,04,18,02,00,32.00
2022,04,18,02,01,31.90
2022,04,18,02,02,31.90
2022,04,18,02,03,31.80
2022,04,18,02,04,31.80
2022,04,18,02,05,31.70
2022,04,18,02,06,31.70
2022,04,18,02,07,31.70
2022,04,18,02,08,31.70
2022,04,18,02,09,31.60
2022,04,18,02,10,31.60
2022,04,18,02,11,31.60
2022,04,18,02,12,31.50
2022,04,18,02,13,31.50
2022,04,18,02,14,31.50
2022,04,18,02,15,31.50
2022,04,18,02,16,31.40
2022,04,18,02,17,31.40
2022,04,18,02,18,31.40
2022,04,18,02,19,31.30
2022,04,18,02,20,31.30
2022,04,18,02,21,31.30
2022,04,18,02,22,31.30
2022,04,18,02,23,31.30
2022,04,18,02,24,31.30
2022,04,18,02,25,31.20
2022,04,18,02,26,31.20
2022,04,18,02,27,31.20
2022,04,18,02,28,31.20
2022,04,18,02,29,31.10
2022,04,18,02,30,31.10
2022,04,18,02,31,31.10
2022,04,18,02,32,31.10
2022,04,18,02,33,31.00
2022,04,18,02,34,31.00
2022,04,18,02,35,30.90
2022,04,18,02,36,30.90
2022,04,18,02,37,30.90
2022,04,18,02,38,30.90
2022,04,18,02,39,30.80
2022,04,18,02,40,30.80
2022,04,18,02,41,30.80
2022,04,18,02,42,30.80
2022,04,18,02,43,30.80
2022,04,18,02,44,30.80
2022,04,18,02,45,30.80
2022,04,18,02,46,30.80
2022,04,18,02,47,30.80
2022,04,18,02,48,30.80
2022,04,18,02,49,30.80
2022,04,18,02,50,30.80
2022,04,18,02,51,30.80
2022,04,18,02,52,30.80
2022,04,18,02,53,30.70
2022,04,18,02,54,30.80
2022,04,18,02,55,30.80
2022,04,18,02,56,30.80
2022,04,18,02,57,30.80
2022,04,18,02,58,30.80
2022,04,18,02,59,30.80
2022,04,18,03,00,30.80
2022,04,18,03,01,30.80
2022,04,18,03,02,30.80
2022,04,18,03,03,30.80
2022,04,18,03,04,30.70
2022,04,18,03,05,30.70
2022,04,18,03,06,30.70
2022,04,18,03,07,30.70
2022,04,18,03,08,30.70
2022,04,18,03,09,30.70
2022,04,18,03,10,30.70
2022,04,18,03,11,30.70
2022,04,18,03,12,30.60
2022,04,18,03,13,30.60
2022,04,18,03,14,30.60
2022,04,18,03,15,30.60
2022,04,18,03,16,30.60
2022,04,18,03,17,30.60
2022,04,18,03,18,30.70
2022,04,18,03,19,30.70
2022,04,18,03,20,30.70
2022,04,18,03,21,30.70
2022,04,18,03,22,30.80
2022,04,18,03,23,30.80
2022,04,18,03,24,30.80
2022,04,18,03,25,30.80
2022,04,18,03,26,30.80
2022,04,18,03,27,30.80
2022,04,18,03,28,30.90
2022,04,18,03,29,30.90
2022,04,18,03,30,31.00
2022,04,18,03,31,31.00
2022,04,18,03,32,31.00
2022,04,18,03,33,31.00
2022,04,18,03,34,31.00
2022,04,18,03,35,31.00
2022,04,18,03,36,31.00
2022,04,18,03,37,31.00
2022,04,18,03,38,31.10
2022,04,18,03,39,31.10
2022,04,18,03,40,31.00
2022,04,18,03,41,31.00
2022,04,18,03,42,31.00
2022,04,18,03,43,30.90
2022,04,18,03,44,30.90
2022,04,18,03,45,31.00
2022,04,18,03,46,31.00
2022,04,18,03,47,31.00
2022,04,18,03,48,31.10
2022,04,18,03,49,31.10
2022,04,18,03,50,31.10
2022,04,18,03,51,31.10
2022,04,18,03,52,31.20
2022,04,18,03,53,31.20
2022,04,18,03,54,31.20
2022,04,18,03,55,31.20
2022,04,18,03,56,31.20
2022,04,18,03,57,31.20
2022,04,18,03,58,31.20
2022,04,18,03,59,31.10
2022,04,18,04,00,31.00
2022,04,18,04,01,30.90
2022,04,18,04,02,30.80
2022,04,18,04,03,30.70
2022,04,18,04,04,30.70
2022,04,18,04,05,30.60
2022,04,18,04,06,30.60
2022,04,18,04,07,30.60
2022,04,18,04,08,30.60
2022,04,18,04,09,30.50
2022,04,18,04,10,30.50
2022,04,18,04,11,30.40
2022,04,18,04,12,30.40
2022,04,18,04,13,30.40
2022,04,18,04,14,30.50
2022,04,18,04,15,30.50
2022,04,18,04,16,30.50
2022,04,18,04,17,30.50
2022,04,18,04,18,30.50
2022,04,18,04,19,30.50
2022,04,18,04,20,30.40
2022,04,18,04,21,30.50
2022,04,18,04,22,30.50
2022,04,18,04,23,30.50
2022,04,18,04,24,30.50
2022,04,18,04,25,30.50
2022,04,18,04,26,30.50
2022,04,18,04,27,30.50
2022,04,18,04,28,30.40
2022,04,18,04,29,30.40
2022,04,18,04,30,30.40
2022,04,18,04,31,30.40
2022,04,18,04,32,30.40
2022,04,18,04,33,30.30
2022,04,18,04,34,30.30
2022,04,18,04,35,30.30
2022,04,18,04,36,30.30
2022,04,18,04,37,30.30
2022,04,18,04,38,30.30
2022,04,18,04,39,30.30
2022,04,18,04,40,30.20
2022,04,18,04,41,30.20
2022,04,18,04,42,30.20
2022,04,18,04,43,30.20
2022,04,18,04,44,30.10
2022,04,18,04,45,30.10
2022,04,18,04,46,30.10
2022,04,18,04,47,30.10
2022,04,18,04,48,30.20
2022,04,18,04,49,30.20
2022,04,18,04,50,30.30
2022,04,18,04,51,30.30
2022,04,18,04,52,30.40
2022,04,18,04,53,30.40
2022,04,18,04,54,30.40
2022,04,18,04,55,30.40
2022,04,18,04,56,30.40
2022,04,18,04,57,30.40
2022,04,18,04,58,30.40
2022,04,18,04,59,30.40
2022,04,18,05,00,30.50
2022,04,18,05,01,30.50
2022,04,18,05,02,30.40
2022,04,18,05,03,30.40
2022,04,18,05,04,30.30
2022,04,18,05,05,30.30
2022,04,18,05,06,30.20
2022,04,18,05,07,30.20
2022,04,18,05,08,30.10
2022,04,18,05,09,30.10
2022,04,18,05,10,30.10
2022,04,18,05,11,30.10
2022,04,18,05,12,30.10
2022,04,18,05,13,30.10
2022,04,18,05,14,30.00
2022,04,18,05,15,30.10
2022,04,18,05,16,30.00
2022,04,18,05,17,30.00
2022,04,18,05,18,30.00
2022,04,18,05,19,29.90
2022,04,18,05,20,29.90
2022,04,18,05,21,29.90
2022,04,18,05,22,29.80
2022,04,18,05,23,29.80
2022,04,18,05,24,29.70
2022,04,18,05,25,29.70
2022,04,18,05,26,29.60
2022,04,18,05,27,29.60
2022,04,18,05,28,29.60
2022,04,18,05,29,29.50
2022,04,18,05,30,29.50
2022,04,18,05,31,29.50
2022,04,18,05,32,29.50
2022,04,18,05,33,29.50
2022,04,18,05,34,29.50
2022,04,18,05,35,29.50
2022,04,18,05,36,29.60
2022,04,18,05,37,29.60
2022,04,18,05,38,29.60
2022,04,18,05,39,29.60
2022,04,18,05,40,29.60
2022,04,18,05,41,29.60
2022,04,18,05,42,29.60
2022,04,18,05,43,29.60
2022,04,18,05,44,29.70
2022,04,18,05,45,29.70
2022,04,18,05,46,29.70
2022,04,18,05,47,29.70
2022,04,18,05,48,29.60
2022,04,18,05,49,29.60
2022,04,18,05,50,29.60
2022,04,18,05,51,29.50
2022,04,18,05,52,29.50
2022,04,18,05,53,29.50
2022,04,18,05,54,29.60
2022,04,18,05,55,29.60
2022,04,18,05,56,29.60
2022,04,18,05,57,29.60
2022,04,18,05,58,29.60
2022,04,18,05,59,29.60
2022,04,18,06,00,29.50
2022,04,18,06,01,29.50
2022,04,18,06,02,29.60
2022,04,18,06,03,29.60
2022,04,18,06,04,29.60
2022,04,18,06,05,29.60
2022,04,18,06,06,29.70
2022,04,18,06,07,29.70
2022,04,18,06,08,29.70
2022,04,18,06,09,29.70
2022,04,18,06,10,29.70
2022,04,18,06,11,29.70
2022,04,18,06,12,29.60
2022,04,18,06,13,29.50
2022,04,18,06,14,29.50
2022,04,18,06,15,29.40
2022,04,18,06,16,29.40
2022,04,18,06,17,29.40
2022,04,18,06,18,29.40
2022,04,18,06,19,29.40
2022,04,18,06,20,29.40
2022,04,18,06,21,29.40
2022,04,18,06,22,29.50
2022,04,18,06,23,29.50
2022,04,18,06,24,29.50
2022,04,18,06,25,29.50
2022,04,18,06,26,29.40
2022,04,18,06,27,29.40
2022,04,18,06,28,29.40
2022,04,18,06,29,29.40
2022,04,18,06,30,29.40
2022,04,18,06,31,29.40
2022,04,18,06,32,29.50
2022,04,18,06,33,29.50
2022,04,18,06,34,29.50
2022,04,18,06,35,29.60
2022,04,18,06,36,29.60
2022,04,18,06,37,29.60
2022,04,18,06,38,29.50
2022,04,18,06,39,29.50
2022,04,18,06,40,29.40
2022,04,18,06,41,29.40
2022,04,18,06,42,29.50
2022,04,18,06,43,29.50
2022,04,18,06,44,29.60
2022,04,18,06,45,29.60
2022,04,18,06,46,29.60
2022,04,18,06,47,29.60
2022,04,18,06,48,29.50
2022,04,18,06,49,29.50
2022,04,18,06,50,29.40
2022,04,18,06,51,29.40
2022,04,18,06,52,29.50
2022,04,18,06,53,29.50
2022,04,18,06,54,29.50
2022,04,18,06,55,29.50
2022,04,18,06,56,29.40
2022,04,18,06,57,29.40
2022,04,18,06,58,29.30
2022,04,18,06,59,29.30
2022,04,18,07,00,29.30
2022,04,18,07,01,29.40
2022,04,18,07,02,29.40
2022,04,18,07,03,29.40
2022,04,18,07,04,29.40
2022,04,18,07,05,29.40
2022,04,18,07,06,29.40
2022,04,18,07,07,29.40
2022,04,18,07,08,29.40
2022,04,18,07,09,29.30
2022,04,18,07,10,29.30
2022,04,18,07,11,29.30
2022,04,18,07,12,29.30
2022,04,18,07,13,29.30
2022,04,18,07,14,29.30
2022,04,18,07,15,29.30
2022,04,18,07,16,29.30
2022,04,18,07,17,29.30
2022,04,18,07,18,29.30
2022,04,18,07,19,29.30
2022,04,18,07,20,29.30
2022,04,18,07,21,29.40
2022,04,18,07,22,29.40
2022,04,18,07,23,29.40
2022,04,18,07,24,29.40
2022,04,18,07,25,29.40
2022,04,18,07,26,29.50
2022,04,18,07,27,29.50
2022,04,18,07,28,29.50
2022,04,18,07,29,29.50
2022,04,18,07,30,29.60
2022,04,18,07,31,29.60
2022,04,18,07,32,29.60
2022,04,18,07,33,29.70
2022,04,18,07,34,29.80
2022,04,18,07,35,29.80
2022,04,18,07,36,29.90
2022,04,18,07,37,29.90
2022,04,18,07,38,30.00
2022,04,18,07,39,30.00
2022,04,18,07,40,30.10
2022,04,18,07,41,30.10
2022,04,18,07,42,30.10
2022,04,18,07,43,30.20
2022,04,18,07,44,30.20
2022,04,18,07,45,30.20
2022,04,18,07,46,30.20
2022,04,18,07,47,30.20
2022,04,18,07,48,30.20
2022,04,18,07,49,30.20
2022,04,18,07,50,30.20
2022,04,18,07,51,30.10
2022,04,18,07,52,30.10
2022,04,18,07,53,30.00
2022,04,18,07,54,30.00
2022,04,18,07,55,29.90
2022,04,18,07,56,29.80
2022,04,18,07,57,29.80
2022,04,18,07,58,29.80
2022,04,18,07,59,29.70
2022,04,18,08,00,29.70
2022,04,18,08,01,29.70
2022,04,18,08,02,29.80
2022,04,18,08,03,29.80
2022,04,18,08,04,29.90
2022,04,18,08,05,29.90
2022,04,18,08,06,29.90
2022,04,18,08,07,30.00
2022,04,18,08,08,30.00
2022,04,18,08,09,30.10
2022,04,18,08,10,30.10
2022,04,18,08,11,30.10
2022,04,18,08,12,30.00
2022,04,18,08,13,30.00
2022,04,18,08,14,30.00
2022,04,18,08,15,29.90
2022,04,18,08,16,29.90
2022,04,18,08,17,29.90
2022,04,18,08,18,29.90
2022,04,18,08,19,29.90
2022,04,18,08,20,29.90
2022,04,18,08,21,29.90
2022,04,18,08,22,29.90
2022,04,18,08,23,29.90
2022,04,18,08,24,29.90
2022,04,18,08,25,29.90
2022,04,18,08,26,29.80
2022,04,18,08,27,29.80
2022,04,18,08,28,29.90
2022,04,18,08,29,29.90
2022,04,18,08,30,29.90
2022,04,18,08,31,29.90
2022,04,18,08,32,29.90
2022,04,18,08,33,29.90
2022,04,18,08,34,29.90
2022,04,18,08,35,29.90
2022,04,18,08,36,29.90
2022,04,18,08,37,29.90
2022,04,18,08,38,29.90
2022,04,18,08,39,29.90
2022,04,18,08,40,29.90
2022,04,18,08,41,29.90
2022,04,18,08,42,30.00
2022,04,18,08,43,30.00
2022,04,18,08,44,29.90
2022,04,18,08,45,29.90
2022,04,18,08,46,29.90
2022,04,18,08,47,29.90
2022,04,18,08,48,29.90
2022,04,18,08,49,29.90
2022,04,18,08,50,29.90
2022,04,18,08,51,29.90
2022,04,18,08,52,30.00
2022,04,18,08,53,30.00
2022,04,18,08,54,30.00
2022,04,18,08,55,30.10
2022,04,18,08,56,30.00
2022,04,18,08,57,30.00
2022,04,18,08,58,30.00
2022,04,18,08,59,30.00
2022,04,18,09,00,30.00
2022,04,18,09,01,30.00
2022,04,18,09,02,30.00
2022,04,18,09,03,30.10
2022,04,18,09,04,30.00
2022,04,18,09,05,30.00
2022,04,18,09,06,30.00
2022,04,18,09,07,30.00
2022,04,18,09,08,29.90
2022,04,18,09,09,29.90
2022,04,18,09,10,29.90
2022,04,18,09,11,30.00
2022,04,18,09,12,30.00
2022,04,18,09,13,30.00
2022,04,18,09,14,30.00
2022,04,18,09,15,30.00
2022,04,18,09,16,30.00
2022,04,18,09,17,30.00
2022,04,18,09,18,30.00
2022,04,18,09,19,30.00
2022,04,18,09,20,30.00
2022,04,18,09,21,30.00
2022,04,18,09,22,30.00
2022,04,18,09,23,30.00
2022,04,18,09,24,30.00
2022,04,18,09,25,30.00
2022,04,18,09,26,30.00
2022,04,18,09,27,30.00
2022,04,18,09,28,30.00
2022,04,18,09,29,30.00
2022,04,18,09,30,30.00
2022,04,18,09,31,30.00
2022,04,18,09,32,30.00
2022,04,18,09,33,30.00
2022,04,18,09,34,30.00
2022,04,18,09,35,30.00
2022,04,18,09,36,30.00
2022,04,18,09,37,30.00
2022,04,18,09,38,30.10
2022,04,18,09,39,30.10
2022,04,18,09,40,30.10
2022,04,18,09,41,30.10
2022,04,18,09,42,30.10
2022,04,18,09,43,30.10
2022,04,18,09,44,30.10
2022,04,18,09,45,30.10
2022,04,18,09,46,30.10
2022,04,18,09,47,30.10
2022,04,18,09,48,30.10
2022,04,18,09,49,30.10
2022,04,18,09,50,30.10
2022,04,18,09,51,30.10
2022,04,18,09,52,30.10
2022,04,18,09,53,30.10
2022,04,18,09,54,30.10
2022,04,18,09,55,30.10
2022,04,18,09,56,30.10
2022,04,18,09,57,30.10
2022,04,18,09,58,30.10
2022,04,18,09,59,30.20
2022,04,18,10,00,30.20
2022,04,18,10,01,30.30
2022,04,18,10,02,30.30
2022,04,18,10,03,30.30
2022,04,18,10,04,30.30
2022,04,18,10,05,30.30
2022,04,18,10,06,30.40
2022,04,18,10,07,30.40
2022,04,18,10,08,30.40
2022,04,18,10,09,30.40
2022,04,18,10,10,30.50
2022,04,18,10,11,30.50
2022,04,18,10,12,30.50
2022,04,18,10,13,30.50
2022,04,18,10,14,30.60
2022,04,18,10,15,30.60
2022,04,18,10,16,30.60
2022,04,18,10,17,30.60
2022,04,18,10,18,30.60
2022,04,18,10,19,30.60
2022,04,18,10,20,30.60
2022,04,18,10,21,30.60
2022,04,18,10,22,30.60
2022,04,18,10,23,30.60
2022,04,18,10,24,30.60
2022,04,18,10,25,30.60
2022,04,18,10,26,30.60
2022,04,18,10,27,30.60
2022,04,18,10,28,30.70
2022,04,18,10,29,30.60
2022,04,18,10,30,30.70
2022,04,18,10,31,30.70
2022,04,18,10,32,30.70
2022,04,18,10,33,30.70
2022,04,18,10,34,30.70
2022,04,18,10,35,30.70
2022,04,18,10,36,30.70
2022,04,18,10,37,30.70
2022,04,18,10,38,30.70
2022,04,18,10,39,30.80
2022,04,18,10,40,30.80
2022,04,18,10,41,30.90
2022,04,18,10,42,30.90
2022,04,18,10,43,30.90
2022,04,18,10,44,30.90
2022,04,18,10,45,30.90
2022,04,18,10,46,30.80
2022,04,18,10,47,30.80
2022,04,18,10,48,30.80
2022,04,18,10,49,30.80
2022,04,18,10,50,30.70
2022,04,18,10,51,30.70
2022,04,18,10,52,30.70
2022,04,18,10,53,30.70
2022,04,18,10,54,30.70
2022,04,18,10,55,30.70
2022,04,18,10,56,30.70
2022,04,18,10,57,30.70
2022,04,18,10,58,30.70
2022,04,18,10,59,30.70
2022,04,18,11,00,30.70
2022,04,18,11,01,30.70
2022,04,18,11,02,30.80
2022,04,18,11,03,30.80
2022,04,18,11,04,30.80
2022,04,18,11,05,30.80
2022,04,18,11,06,30.80
2022,04,18,11,07,30.80
2022,04,18,11,08,30.90
2022,04,18,11,09,30.90
2022,04,18,11,10,30.90
2022,04,18,11,11,31.00
2022,04,18,11,12,31.00
2022,04,18,11,13,31.10
2022,04,18,11,14,31.10
2022,04,18,11,15,31.10
2022,04,18,11,16,31.10
2022,04,18,11,17,31.10
2022,04,18,11,18,31.00
2022,04,18,11,19,31.00
2022,04,18,11,20,31.00
2022,04,18,11,21,30.90
2022,04,18,11,22,30.90
2022,04,18,11,23,30.90
2022,04,18,11,24,30.90
2022,04,18,11,25,30.90
2022,04,18,11,26,30.80
2022,04,18,11,27,30.80
2022,04,18,11,28,30.80
2022,04,18,11,29,30.80
2022,04,18,11,30,30.80
2022,04,18,11,31,30.80
2022,04,18,11,32,30.80
2022,04,18,11,33,30.80
2022,04,18,11,34,30.90
2022,04,18,11,35,30.90
2022,04,18,11,36,31.00
2022,04,18,11,37,31.00
2022,04,18,11,38,31.10
2022,04,18,11,39,31.10
2022,04,18,11,40,31.20
2022,04,18,11,41,31.20
2022,04,18,11,42,31.20
2022,04,18,11,43,31.20
2022,04,18,11,44,31.20
2022,04,18,11,45,31.20
2022,04,18,11,46,31.20
2022,04,18,11,47,31.20
2022,04,18,11,48,31.30
2022,04,18,11,49,31.30
2022,04,18,11,50,31.30
2022,04,18,11,51,31.30
2022,04,18,11,52,31.30
2022,04,18,11,53,31.30
2022,04,18,11,54,31.40
2022,04,18,11,55,31.30
2022,04,18,11,56,31.30
2022,04,18,11,57,31.30
2022,04,18,11,58,31.30
2022,04,18,11,59,31.20
2022,04,18,12,00,31.20
2022,04,18,12,01,31.20
2022,04,18,12,02,31.20
2022,04,18,12,03,31.10
2022,04,18,12,04,31.10
2022,04,18,12,05,31.10
2022,04,18,12,06,31.10
2022,04,18,12,07,31.20
2022,04,18,12,08,31.10
2022,04,18,12,09,31.10
2022,04,18,12,10,31.10
2022,04,18,12,11,31.10
2022,04,18,12,12,31.20
2022,04,18,12,13,30.90
2022,04,18,12,14,30.70
2022,04,18,12,15,30.60
2022,04,18,12,16,30.60
2022,04,18,12,17,30.60
2022,04,18,12,18,30.60
2022,04,18,12,19,30.50
2022,04,18,12,20,30.40
2022,04,18,12,21,30.40
2022,04,18,12,22,30.50
2022,04,18,12,23,30.50
2022,04,18,12,24,30.60
2022,04,18,12,25,30.50
2022,04,18,12,26,30.60
2022,04,18,12,27,30.50
2022,04,18,12,28,30.50
2022,04,18,12,29,30.50
2022,04,18,12,30,30.50
2022,04,18,12,31,30.50
2022,04,18,12,32,30.50
2022,04,18,12,33,30.40
2022,04,18,12,34,30.40
2022,04,18,12,35,30.40
2022,04,18,12,36,30.40
2022,04,18,12,37,30.40
2022,04,18,12,38,30.40
2022,04,18,12,39,30.40
2022,04,18,12,40,30.40
2022,04,18,12,41,30.40
2022,04,18,12,42,30.50
2022,04,18,12,43,30.40
2022,04,18,12,44,30.30
2022,04,18,12,45,30.40
2022,04,18,12,46,30.30
2022,04,18,12,47,30.30
2022,04,18,12,48,30.30
2022,04,18,12,49,30.20
2022,04,18,12,50,30.20
2022,04,18,12,51,30.00
2022,04,18,12,52,30.00
2022,04,18,12,53,30.00
2022,04,18,12,54,30.00
2022,04,18,12,55,30.10
2022,04,18,12,56,30.10
2022,04,18,12,57,30.20
2022,04,18,12,58,30.10
2022,04,18,12,59,30.20
2022,04,18,13,00,30.20
2022,04,18,13,01,30.20
2022,04,18,13,02,30.20
2022,04,18,13,03,30.10
2022,04,18,13,04,30.20
2022,04,18,13,05,30.20
2022,04,18,13,06,30.30
2022,04,18,13,07,30.30
2022,04,18,13,08,30.30
2022,04,18,13,09,30.30
2022,04,18,13,10,30.20
2022,04,18,13,11,30.30
2022,04,18,13,12,30.20
2022,04,18,13,13,30.20
2022,04,18,13,14,30.10
2022,04,18,13,15,30.00
2022,04,18,13,16,29.50
2022,04,18,13,17,29.50
2022,04,18,13,18,29.50
2022,04,18,13,19,29.80
2022,04,18,13,20,29.70
2022,04,18,13,21,29.70
2022,04,18,13,22,29.60
2022,04,18,13,23,29.50
2022,04,18,13,24,29.60
2022,04,18,13,25,29.80
2022,04,18,13,26,29.60
2022,04,18,13,27,29.50
2022,04,18,13,28,29.40
2022,04,18,13,29,29.40
2022,04,18,13,30,29.50
2022,04,18,13,31,29.40
2022,04,18,13,32,29.60
2022,04,18,13,33,29.30
2022,04,18,13,34,29.50
2022,04,18,13,35,29.30
2022,04,18,13,36,29.20
2022,04,18,13,37,29.30
2022,04,18,13,38,29.30
2022,04,18,13,39,29.40
2022,04,18,13,40,29.40
2022,04,18,13,41,29.40
2022,04,18,13,42,29.20
2022,04,18,13,43,29.20
2022,04,18,13,44,29.10
2022,04,18,13,45,29.10
2022,04,18,13,46,29.20
2022,04,18,13,47,29.50
2022,04,18,13,48,29.60
2022,04,18,13,49,29.30
2022,04,18,13,50,29.20
2022,04,18,13,51,29.40
2022,04,18,13,52,29.30
2022,04,18,13,53,29.20
2022,04,18,13,54,29.20
2022,04,18,13,55,29.40
2022,04,18,13,56,29.30
2022,04,18,13,57,29.30
2022,04,18,13,58,29.20
2022,04,18,13,59,29.20
2022,04,18,14,00,29.30
2022,04,18,14,01,29.20
2022,04,18,14,02,29.10
2022,04,18,14,03,29.10
2022,04,18,14,04,29.30
2022,04,18,14,05,29.30
2022,04,18,14,06,28.90
2022,04,18,14,07,28.80
2022,04,18,14,08,28.80
2022,04,18,14,09,28.80
2022,04,18,14,10,28.70
2022,04,18,14,11,28.70
2022,04,18,14,12,28.80
2022,04,18,14,13,28.70
2022,04,18,14,14,28.60
2022,04,18,14,15,28.70
2022,04,18,14,16,28.70
2022,04,18,14,17,28.70
2022,04,18,14,18,28.70
2022,04,18,14,19,28.80
2022,04,18,14,20,28.80
2022,04,18,14,21,28.90
2022,04,18,14,22,29.00
2022,04,18,14,23,29.10
2022,04,18,14,24,29.20
2022,04,18,14,25,29.10
2022,04,18,14,26,29.10
2022,04,18,14,27,29.10
2022,04,18,14,28,29.20
2022,04,18,14,29,29.10
2022,04,18,14,30,29.20
2022,04,18,14,31,29.20
2022,04,18,14,32,29.30
2022,04,18,14,33,29.40
2022,04,18,14,34,29.70
2022,04,18,14,35,29.70
2022,04,18,14,36,29.70
2022,04,18,14,37,30.00
2022,04,18,14,38,29.60
2022,04,18,14,39,29.30
2022,04,18,14,40,29.40
2022,04,18,14,41,29.50
2022,04,18,14,42,29.30
2022,04,18,14,43,29.30
2022,04,18,14,44,29.40
2022,04,18,14,45,29.30
2022,04,18,14,46,29.40
2022,04,18,14,47,29.40
2022,04,18,14,48,29.50
2022,04,18,14,49,29.50
2022,04,18,14,50,29.50
2022,04,18,14,51,29.50
2022,04,18,14,52,29.70
2022,04,18,14,53,29.80
2022,04,18,14,54,29.80
2022,04,18,14,55,29.80
2022,04,18,14,56,29.80
2022,04,18,14,57,29.80
2022,04,18,14,58,29.90
2022,04,18,14,59,29.90
2022,04,18,15,00,29.70
2022,04,18,15,01,29.70
2022,04,18,15,02,29.90
2022,04,18,15,03,29.80
2022,04,18,15,04,29.80
2022,04,18,15,05,29.80
2022,04,18,15,06,29.90
2022,04,18,15,07,29.90
2022,04,18,15,08,29.80
2022,04,18,15,09,29.70
2022,04,18,15,10,29.60
2022,04,18,15,11,29.50
2022,04,18,15,12,29.40
2022,04,18,15,13,29.20
2022,04,18,15,14,29.20
2022,04,18,15,15,29.40
2022,04,18,15,16,29.10
2022,04,18,15,17,29.00
2022,04,18,15,18,29.10
2022,04,18,15,19,29.10
2022,04,18,15,20,29.00
2022,04,18,15,21,29.00
2022,04,18,15,22,29.10
2022,04,18,15,23,29.20
2022,04,18,15,24,29.20
2022,04,18,15,25,29.10
2022,04,18,15,26,29.00
2022,04,18,15,27,28.90
2022,04,18,15,28,29.00
2022,04,18,15,29,28.90
2022,04,18,15,30,28.70
2022,04,18,15,31,28.80
2022,04,18,15,32,29.00
2022,04,18,15,33,29.10
2022,04,18,15,34,29.20
2022,04,18,15,35,29.10
2022,04,18,15,36,29.10
2022,04,18,15,37,29.10
2022,04,18,15,38,29.10
2022,04,18,15,39,29.30
2022,04,18,15,40,29.20
2022,04,18,15,41,29.20
2022,04,18,15,42,29.20
2022,04,18,15,43,29.20
2022,04,18,15,44,29.30
2022,04,18,15,45,29.20
2022,04,18,15,46,29.10
2022,04,18,15,47,29.20
2022,04,18,15,48,29.10
2022,04,18,15,49,29.10
2022,04,18,15,50,29.10
2022,04,18,15,51,29.00
2022,04,18,15,52,29.10
2022,04,18,15,53,29.00
2022,04,18,15,54,29.00
2022,04,18,15,55,29.00
2022,04,18,15,56,29.10
2022,04,18,15,57,29.00
2022,04,18,15,58,29.00
2022,04,18,15,59,29.00
2022,04,18,16,00,29.00
2022,04,18,16,01,28.90
2022,04,18,16,02,29.00
2022,04,18,16,03,29.10
2022,04,18,16,04,29.10
2022,04,18,16,05,29.00
2022,04,18,16,06,29.00
2022,04,18,16,07,28.90
2022,04,18,16,08,29.00
2022,04,18,16,09,29.00
2022,04,18,16,10,29.10
2022,04,18,16,11,29.00
2022,04,18,16,12,28.90
2022,04,18,16,13,28.90
2022,04,18,16,14,28.90
2022,04,18,16,15,28.90
2022,04,18,16,16,29.00
2022,04,18,16,17,29.10
2022,04,18,16,18,29.10
2022,04,18,16,19,29.10
2022,04,18,16,20,29.10
2022,04,18,16,21,29.10
2022,04,18,16,22,29.10
2022,04,18,16,23,29.10
2022,04,18,16,24,29.00
2022,04,18,16,25,29.10
2022,04,18,16,26,29.20
2022,04,18,16,27,29.20
2022,04,18,16,28,29.20
2022,04,18,16,29,29.10
2022,04,18,16,30,29.10
2022,04,18,16,31,29.00
2022,04,18,16,32,29.00
2022,04,18,16,33,29.10
2022,04,18,16,34,29.10
2022,04,18,16,35,29.00
2022,04,18,16,36,29.00
2022,04,18,16,37,29.00
2022,04,18,16,38,29.10
2022,04,18,16,39,29.10
2022,04,18,16,40,29.10
2022,04,18,16,41,29.10
2022,04,18,16,42,29.20
2022,04,18,16,43,29.30
2022,04,18,16,44,29.40
2022,04,18,16,45,29.40
2022,04,18,16,46,29.40
2022,04,18,16,47,29.40
2022,04,18,16,48,29.50
2022,04,18,16,49,29.50
2022,04,18,16,50,29.50
2022,04,18,16,51,29.60
2022,04,18,16,52,29.70
2022,04,18,16,53,29.70
2022,04,18,16,54,29.70
2022,04,18,16,55,29.80
2022,04,18,16,56,29.70
2022,04,18,16,57,29.60
2022,04,18,16,58,29.70
2022,04,18,16,59,29.70
2022,04,18,17,00,29.80
2022,04,18,17,01,29.80
2022,04,18,17,02,29.90
2022,04,18,17,03,29.90
2022,04,18,17,04,30.00
2022,04,18,17,05,30.00
2022,04,18,17,06,30.00
2022,04,18,17,07,30.00
2022,04,18,17,08,30.10
2022,04,18,17,09,30.10
2022,04,18,17,10,30.10
2022,04,18,17,11,30.00
2022,04,18,17,12,30.10
2022,04,18,17,13,30.10
2022,04,18,17,14,30.10
2022,04,18,17,15,30.00
2022,04,18,17,16,30.00
2022,04,18,17,17,30.00
2022,04,18,17,18,30.00
2022,04,18,17,19,29.90